Track YAOGAN 9B now! 10-day predictions YAOGAN 9B is classified as:
1 36414U 10009B 25131.88804083 -.00000039 00000-0 40244-4 0 9990 2 36414 63.3717 315.7589 0503754 17.9282 343.8815 13.45602769745740